Le nostre stazioni meteo in Italia

Pubblicità
Il mio iltempo24.it
Lampedusa, Italia (16490): Temperatura & dewpoint: 11.02.2019 13:00:00 - 17.02.2019 13:00:00 (CET)Lampedusa, Italia (16490): velocità del vento: 11.02.2019 13:00:00 - 17.02.2019 13:00:00 (CET)Lampedusa, Italia (16490): direzione del vento: 11.02.2019 13:00:00 - 17.02.2019 13:00:00 (CET)Lampedusa, Italia (16490): reduced air pressure: 11.02.2019 13:00:00 - 17.02.2019 13:00:00 (CET)Lampedusa, Italia (16490): visibility: 11.02.2019 13:00:00 - 17.02.2019 13:00:00 (CET)Lampedusa, Italia (16490): precipitazioni: 11.02.2019 13:00:00 - 17.02.2019 13:00:00 (CET)
Data & Tempo tt [°C] td [°C] ff [km/h] ff [kn] dd ppp [hPa] vv [km] rr [mm]
17.02.2019 13:00:00 13,9 6,3 9 5 N 1029,9 10 -
17.02.2019 12:00:00 14,0 7,0 11 6 N - 10 -
17.02.2019 11:00:00 - - - - - - - -
17.02.2019 10:00:00 14,1 7,2 11 6 OSO 1030,4 20 0,0
17.02.2019 09:00:00 13,0 8,0 9 5 O - 10 -
17.02.2019 08:00:00 10,0 6,0 9 5 O - 10 -
17.02.2019 07:00:00 10,3 5,9 9 5 O 1029,7 10 -
17.02.2019 06:00:00 10,0 5,0 9 5 O - 10 -
17.02.2019 05:00:00 10,0 5,0 9 5 O - 10 -
17.02.2019 04:00:00 10,7 3,7 9 5 O 1028,8 10 0,0
17.02.2019 03:00:00 11,0 3,0 8 4 O - 10 -
17.02.2019 02:00:00 10,0 3,0 5 3 O - 10 -
17.02.2019 01:00:00 11,0 3,8 8 4 NO 1029,7 10 -
17.02.2019 00:00:00 11,0 4,0 8 4 NNO - 10 -
16.02.2019 23:00:00 12,0 5,0 8 4 NO - 10 -
16.02.2019 22:00:00 11,6 5,1 8 4 NNO 1030,3 20 0,0
16.02.2019 21:00:00 12,0 5,0 9 5 NNO - 10 -
16.02.2019 20:00:00 12,0 6,0 11 6 NNE - 10 -
16.02.2019 19:00:00 12,0 6,1 9 5 NE 1029,2 20 -
16.02.2019 18:00:00 13,0 6,0 13 7 NE - 10 -
16.02.2019 17:00:00 13,0 6,0 16 9 ENE - 10 -
16.02.2019 16:00:00 12,9 6,0 21 11 NE 1028,2 10 0,0
16.02.2019 15:00:00 13,0 6,0 22 12 NE - 10 -
16.02.2019 14:00:00 14,0 5,0 26 14 NE - 10 -
16.02.2019 13:00:00 13,5 5,4 28 15 NE 1028,2 10 -
16.02.2019 12:00:00 13,0 5,0 31 17 NNE - 10 -
16.02.2019 11:00:00 13,0 5,0 29 16 NE - 10 -
16.02.2019 10:00:00 12,9 4,4 31 17 NE 1027,4 10 0,0
16.02.2019 09:00:00 13,0 4,0 37 20 NNE - 10 -
16.02.2019 08:00:00 12,0 5,0 34 18 NE - 10 -
16.02.2019 07:00:00 11,6 5,3 29 16 NE 1025,4 10 -
16.02.2019 06:00:00 12,0 6,0 29 16 NE - 10 -
16.02.2019 05:00:00 12,0 7,0 28 15 NE - 10 -
16.02.2019 04:00:00 11,4 7,7 28 15 NE 1023,8 10 0,0
16.02.2019 03:00:00 12,0 9,0 41 22 ENE - 10 -
16.02.2019 02:00:00 13,0 10,0 35 19 ENE - 10 -
16.02.2019 01:00:00 13,6 9,6 24 13 N 1022,8 10 -
16.02.2019 00:00:00 14,0 9,0 29 16 NNO - 10 -
15.02.2019 23:00:00 14,0 9,0 29 16 NNO - 10 -
15.02.2019 22:00:00 13,8 9,1 28 15 NNO 1023,3 10 0,0
15.02.2019 21:00:00 14,0 9,0 24 13 NO - 10 -
15.02.2019 20:00:00 14,0 9,0 24 13 NNO - 10 -
15.02.2019 19:00:00 14,0 9,0 24 13 NO - 10 -
15.02.2019 18:00:00 14,0 9,0 24 13 NO - 10 -
15.02.2019 17:00:00 14,0 9,0 22 12 NO - 10 -
15.02.2019 16:00:00 14,1 9,1 22 12 NO 1024,4 10 0,0
15.02.2019 15:00:00 15,0 10,0 22 12 NO - 10 -
15.02.2019 14:00:00 15,0 10,0 24 13 NO - 10 -
15.02.2019 13:00:00 15,1 9,6 22 12 NO 1026,7 10 -
15.02.2019 12:00:00 15,0 10,0 22 12 NO - 10 -
15.02.2019 11:00:00 14,0 9,0 22 12 NO - 10 -
15.02.2019 10:00:00 13,8 9,1 21 11 NO 1028,3 10 0,0
15.02.2019 09:00:00 13,0 9,0 24 13 NO - 10 -
15.02.2019 08:00:00 13,0 8,0 22 12 NO - 10 -
15.02.2019 07:00:00 13,0 8,0 21 11 NO - 10 -
15.02.2019 06:00:00 13,0 8,0 22 12 NNO - 10 -
15.02.2019 05:00:00 13,0 8,0 24 13 NO - 10 -
15.02.2019 04:00:00 12,3 7,3 21 11 NO 1028,4 10 0,0
15.02.2019 03:00:00 12,0 7,0 21 11 NO - 10 -
15.02.2019 02:00:00 12,0 7,0 22 12 NNO - 10 -
15.02.2019 01:00:00 12,6 7,8 22 12 NNO 1029,5 10 -
15.02.2019 00:00:00 13,0 8,0 28 15 NNO - 10 -
14.02.2019 23:00:00 13,0 8,0 24 13 NNO - 10 -
14.02.2019 22:00:00 12,6 7,5 24 13 NNO 1029,8 10 0,0
14.02.2019 21:00:00 12,0 7,0 26 14 NNO - 10 -
14.02.2019 20:00:00 12,0 6,0 26 14 NNO - 10 -
14.02.2019 19:00:00 12,3 6,4 24 13 NNO 1030,2 10 -
14.02.2019 18:00:00 12,0 6,0 22 12 NNO - 10 -
14.02.2019 17:00:00 13,0 5,0 22 12 NNO - 10 -
14.02.2019 16:00:00 13,0 4,7 24 13 NNO 1030,5 20 0,0
14.02.2019 15:00:00 13,0 4,0 22 12 NNO - 10 -
14.02.2019 14:00:00 13,0 3,0 18 10 NO - 10 -
14.02.2019 13:00:00 13,7 3,9 15 8 NNO 1031,2 10 -
14.02.2019 12:00:00 13,0 3,0 18 10 N - 10 -
14.02.2019 11:00:00 13,0 2,0 21 11 N - 10 -
14.02.2019 10:00:00 12,5 2,4 26 14 NNE 1031,3 10 0,0
14.02.2019 09:00:00 12,0 1,0 31 17 NNE - 10 -
14.02.2019 08:00:00 12,0 2,0 34 18 NNE - 10 -
14.02.2019 07:00:00 11,9 1,7 29 16 NNE 1029,5 10 -
14.02.2019 06:00:00 12,0 2,0 31 17 NNE - 10 -
14.02.2019 05:00:00 12,0 4,0 29 16 N - 10 -
14.02.2019 04:00:00 12,1 3,2 34 18 N 1027,7 10 0,0
14.02.2019 03:00:00 12,0 4,0 37 20 N - 10 -
14.02.2019 02:00:00 12,0 4,0 37 20 N - 10 -
14.02.2019 01:00:00 12,3 4,2 35 19 N 1028,5 10 -
14.02.2019 00:00:00 12,0 3,0 37 20 N - 10 -
13.02.2019 23:00:00 12,0 3,0 39 21 N - 10 -
13.02.2019 22:00:00 12,2 4,6 41 22 N 1028,8 10 0,0
13.02.2019 21:00:00 12,0 5,0 42 23 N - 10 -
13.02.2019 20:00:00 13,0 4,0 42 23 N - 10 -
13.02.2019 19:00:00 12,4 3,5 39 21 N 1028,4 10 -
13.02.2019 18:00:00 12,0 3,0 42 23 NNO - 10 -
13.02.2019 17:00:00 13,0 4,0 41 22 NNO - 10 -
13.02.2019 16:00:00 13,1 4,4 41 22 NNO 1027,4 10 0,0
13.02.2019 15:00:00 13,0 3,0 39 21 NNO - 10 -
13.02.2019 14:00:00 13,0 4,0 39 21 N - 10 -
13.02.2019 13:00:00 13,5 4,9 34 18 N 1028,2 10 -
13.02.2019 12:00:00 14,0 6,0 35 19 N - 10 -
13.02.2019 11:00:00 14,0 6,0 26 14 N - 10 -
13.02.2019 10:00:00 13,5 5,2 35 19 N 1028,3 10 0,0
13.02.2019 09:00:00 13,0 5,0 35 19 N - 10 -
13.02.2019 08:00:00 13,0 3,0 29 16 N - 10 -
13.02.2019 07:00:00 13,0 2,0 29 16 N - 10 -
13.02.2019 06:00:00 12,0 2,0 28 15 N - 10 -
13.02.2019 05:00:00 12,0 3,0 29 16 N - 10 -
13.02.2019 04:00:00 12,5 3,5 29 16 N 1025,9 10 0,0
13.02.2019 03:00:00 11,0 4,0 35 19 N - 10 -
13.02.2019 02:00:00 13,0 5,0 22 12 N - 10 -
13.02.2019 01:00:00 11,6 5,9 41 22 NNE 1026,0 10 -
13.02.2019 00:00:00 13,0 5,0 34 18 N - 10 -
12.02.2019 23:00:00 13,0 4,0 29 16 N - 10 -
12.02.2019 22:00:00 12,8 3,2 34 18 N 1025,9 10 0,0
12.02.2019 21:00:00 13,0 2,0 37 20 N - 10 -
12.02.2019 20:00:00 13,0 4,0 37 20 N - 10 -
12.02.2019 19:00:00 13,0 5,0 41 22 N 1024,1 10 -
12.02.2019 18:00:00 13,0 6,0 37 20 NNO - 10 -
12.02.2019 17:00:00 14,0 4,0 39 21 N - 10 -
12.02.2019 16:00:00 13,8 3,6 41 22 N 1021,8 10 0,0
12.02.2019 15:00:00 14,0 5,0 35 19 N - 10 -
12.02.2019 14:00:00 13,0 6,0 31 17 N - 10 -
12.02.2019 13:00:00 12,6 6,2 18 10 NNO 1021,2 10 -
12.02.2019 12:00:00 15,0 6,0 35 19 NNO - 10 -
12.02.2019 11:00:00 14,0 5,0 34 18 NNO - 10 -
12.02.2019 10:00:00 13,0 6,1 29 16 NNO 1021,2 20 0,0
12.02.2019 09:00:00 12,0 4,0 24 13 NNO - 10 -
12.02.2019 08:00:00 12,0 6,0 29 16 NO - 10 -
12.02.2019 07:00:00 10,9 5,1 42 23 NO 1019,7 20 -
12.02.2019 06:00:00 12,0 6,0 29 16 NO - 10 -
12.02.2019 05:00:00 13,0 5,0 34 18 NO - 10 -
12.02.2019 04:00:00 11,9 7,5 31 17 ONO 1019,5 10 0,0
12.02.2019 03:00:00 13,0 6,0 29 16 NO - 10 -
12.02.2019 02:00:00 13,0 6,0 31 17 NO - 10 -
12.02.2019 01:00:00 13,5 6,9 31 17 NO 1020,4 10 -
12.02.2019 00:00:00 14,0 7,0 31 17 NO - 10 -
11.02.2019 23:00:00 14,0 8,0 29 16 NO - 10 -
11.02.2019 22:00:00 14,6 6,7 28 15 NO 1020,8 20 0,0
11.02.2019 21:00:00 15,0 8,0 22 12 ONO - 10 -
11.02.2019 20:00:00 15,0 5,0 24 13 NO - 10 -
11.02.2019 19:00:00 15,0 8,7 24 13 NO 1020,1 10 -
11.02.2019 18:00:00 15,0 9,0 26 14 NO - 10 -
11.02.2019 17:00:00 16,0 12,0 22 12 NNO - 10 -
11.02.2019 16:00:00 16,4 11,8 21 11 ONO 1019,5 30 0,0
11.02.2019 15:00:00 16,0 11,0 28 15 ONO - 10 -
11.02.2019 14:00:00 17,0 11,0 24 13 ONO - 10 -
11.02.2019 13:00:00 17,1 11,0 26 14 ONO 1020,4 10 -

tt = Temperatura
td = dewpoint
ff = velocità del vento
dd = direzione del vento
ppp = reduced air pressure
vv = visibility
rr = precipitazioni

Stazioni seguenti

WeatherPro
AMSI
MeteoEarth